TimeMST,TemperatureF,Dew PointF,Humidity,Sea Level PressureIn,VisibilityMPH,Wind Direction,Wind SpeedMPH,Gust SpeedMPH,PrecipitationIn,Events,Conditions,WindDirDegrees,DateUTC
12:53 AM,26.1,7.0,44,30.68,10.0,SE,13.8,-,N/A,,Clear,140,2011-11-27 07:53:00
1:53 AM,24.1,7.0,48,30.68,10.0,SE,9.2,-,N/A,,Clear,130,2011-11-27 08:53:00
2:53 AM,23.0,7.0,50,30.68,10.0,SE,6.9,-,N/A,,Clear,140,2011-11-27 09:53:00
3:53 AM,21.9,7.0,53,30.68,10.0,ESE,9.2,-,N/A,,Clear,120,2011-11-27 10:53:00
4:53 AM,21.0,7.0,55,30.69,10.0,ESE,4.6,-,N/A,,Clear,120,2011-11-27 11:53:00
5:53 AM,23.0,8.1,53,30.71,10.0,ESE,10.4,-,N/A,,Clear,120,2011-11-27 12:53:00
6:53 AM,21.9,8.1,55,30.73,10.0,SSE,6.9,-,N/A,,Clear,160,2011-11-27 13:53:00
7:53 AM,24.8,8.6,50,30.63,10.0,SSE,9.2,-,N/A,,Clear,150,2011-11-27 14:53:00
8:53 AM,30.0,10.0,43,30.73,10.0,SSE,9.2,-,N/A,,Clear,150,2011-11-27 15:53:00
9:53 AM,33.1,9.0,37,30.72,10.0,South,5.8,-,N/A,,Clear,170,2011-11-27 16:53:00
10:53 AM,37.9,7.0,28,30.66,10.0,SE,9.2,-,N/A,,Clear,140,2011-11-27 17:53:00
11:53 AM,39.9,6.1,25,30.62,10.0,SSE,5.8,-,N/A,,Clear,160,2011-11-27 18:53:00
12:53 PM,43.0,5.0,21,30.58,10.0,Calm,Calm,-,N/A,,Clear,0,2011-11-27 19:53:00
1:53 PM,45.0,6.1,20,30.55,10.0,Calm,Calm,-,N/A,,Clear,0,2011-11-27 20:53:00
2:53 PM,46.0,7.0,20,30.53,10.0,Calm,Calm,-,N/A,,Clear,0,2011-11-27 21:53:00
3:53 PM,46.0,6.1,20,30.53,10.0,WNW,4.6,-,N/A,,Clear,290,2011-11-27 22:53:00
4:53 PM,41.0,6.1,24,30.54,10.0,WNW,4.6,-,N/A,,Clear,290,2011-11-27 23:53:00
5:53 PM,33.1,9.0,37,30.56,10.0,Calm,Calm,-,N/A,,Clear,0,2011-11-28 00:53:00
6:53 PM,30.0,8.1,40,30.58,10.0,Calm,Calm,-,N/A,,Clear,0,2011-11-28 01:53:00
7:53 PM,28.9,9.0,43,30.56,10.0,Calm,Calm,-,N/A,,Clear,0,2011-11-28 02:53:00
8:53 PM,27.0,9.0,47,30.55,10.0,ENE,3.5,-,N/A,,Clear,70,2011-11-28 03:53:00
9:53 PM,28.0,9.0,45,30.55,10.0,East,4.6,-,N/A,,Clear,90,2011-11-28 04:53:00
10:53 PM,28.9,10.0,45,30.51,10.0,Calm,Calm,-,N/A,,Clear,0,2011-11-28 05:53:00
11:53 PM,28.0,10.0,47,30.51,10.0,East,4.6,-,N/A,,Clear,90,2011-11-28 06:53:00